On this page "live" data from an IoT device is shown. More sensors are connected to the device but to keep things clear, only a selection of the data is presented. The data is refreshed each 15 seconds. For this demo, only the last 100 entries in the database are shown, but it is easy to imagine that now that the data is available from anywhere in the world, one can use it for plotting graphs or add controls to it. Your imagination is the limit!

A short clarification of the data columns:

  • Date: date on which the data is transmitted
  • Time: time on which the data is transmitted (GMT time zone)
  • GSM: the charge percentage of the GSM battery
  • Latitude: the geo-latitude position of the IoT device
  • Longitude: the geo-longitude position of the IoT device
  • IR lux: the IR luminosity at the position of the IoT device (in arbitrary units (a.u.))
  • Visible lux: the visible light luminosity (a.u.) at the position of the IoT device
  • UV-A lux: the UV index A luminosity (a.u.)
  • Temp: the environmental temperature in degrees Celcius
  • Pressure: the environmental pressure in mbar
  • Humidity: the environmental humidity in %
  • Solar amps in: the current harvested by the solar panel (in mA)
  • Storage amps out: the current drawn from the solar storage battery (in mA)

 


...connected
Date Time GSM Latitude Longitude IR lux Visible lux UV-A lux Temp Pressure Humidity Solar amps in Storage amps out
20/02/20 10:21:33 100 51.723461 5.877158 18 36 1 19.860001 1014.419983 56.080002 -2.5 -2.5
20/02/20 10:21:48 100 51.723518 5.877118 20 39 1 19.860001 1014.419983 56.080002 -1.25 -2.5
20/02/20 10:22:03 100 51.723572 5.87709 21 42 2 19.860001 1014.419983 56.07 -2.5 -1.25
20/02/20 10:22:17 100 51.723579 5.877103 22 44 3 19.860001 1014.419983 56.060001 -2.5 -2.5
20/02/20 10:22:32 100 51.723579 5.877078 23 46 3 19.860001 1014.419983 56 -3.75 -2.5
20/02/20 10:22:47 100 51.723576 5.877068 23 46 3 19.860001 1014.419983 56.02 -1.25 -1.25
20/02/20 10:23:02 100 51.72356 5.876995 23 46 3 19.860001 1014.400024 56.02 -2.5 -2.5
20/02/20 10:23:17 100 51.72356 5.87691 23 45 3 19.860001 1014.400024 55.950001 -2.5 -2.5
20/02/20 10:23:32 100 51.723534 5.87677 23 44 3 19.860001 1014.400024 55.970001 -2.5 -1.25
20/02/20 10:23:47 100 51.723629 5.87662 23 45 3 19.860001 1014.400024 56.07 0 -3.75
20/02/20 10:24:02 100 51.723679 5.876765 24 46 3 19.860001 1014.400024 56.150002 -2.5 -2.5
20/02/20 10:24:16 100 51.723637 5.876953 25 48 4 19.860001 1014.380005 56.130001 -3.75 -3.75
20/02/20 10:24:31 100 51.72364 5.877033 26 51 4 19.860001 1014.380005 56.080002 -3.75 -1.25
20/02/20 10:24:46 100 51.723633 5.877063 27 53 5 19.860001 1014.359985 56.130001 -2.5 -3.75
20/02/20 10:25:01 100 51.72361 5.877085 28 54 5 19.860001 1014.359985 56.130001 -2.5 -3.75
20/02/20 10:25:16 100 51.723606 5.877047 28 55 5 19.870001 1014.380005 56.119999 -2.5 -3.75
20/02/20 10:25:31 100 51.723606 5.876942 28 55 5 19.870001 1014.359985 56.150002 0 -1.25
20/02/20 10:25:46 100 51.723618 5.876952 28 56 5 19.870001 1014.359985 56.130001 -1.25 -2.5
20/02/20 10:26:00 100 51.723633 5.876985 28 56 5 19.870001 1014.340027 56.32 -2.5 -3.75
20/02/20 10:26:15 100 51.723598 5.877108 28 55 5 19.870001 1014.340027 56.57 -2.5 -2.5
20/02/20 10:26:30 100 51.723598 5.877168 28 55 5 19.870001 1014.340027 56.439999 -2.5 -2.5
20/02/20 10:26:45 100 51.723602 5.87716 27 55 5 19.870001 1014.340027 56.380001 -1.25 -2.5
20/02/20 10:27:00 100 51.723591 5.877152 27 53 5 19.870001 1014.320007 56.330002 -2.5 -2.5
20/02/20 10:27:15 100 51.723595 5.877132 26 53 5 19.870001 1014.320007 56.310001 -2.5 -2.5
20/02/20 10:27:30 100 51.723606 5.877075 26 51 4 19.870001 1014.299988 56.290001 -2.5 -2.5
20/02/20 10:27:44 100 51.723618 5.877078 25 50 4 19.870001 1014.299988 56.240002 -2.5 -2.5
20/02/20 10:27:59 100 51.723606 5.877103 25 49 4 19.870001 1014.280029 56.220001 -3.75 -2.5
20/02/20 10:28:14 100 51.723598 5.877103 25 48 4 19.870001 1014.280029 56.220001 -2.5 -2.5
20/02/20 10:28:29 100 51.723576 5.877088 25 48 4 19.870001 1014.280029 56.23 -2.5 -2.5
20/02/20 10:28:44 100 51.723583 5.877077 25 49 4 19.870001 1014.280029 56.240002 -1.25 -3.75
20/02/20 10:28:58 100 51.723606 5.877082 25 49 4 19.870001 1014.280029 56.279999 -2.5 -2.5
20/02/20 10:29:13 100 51.723595 5.877048 25 49 4 19.870001 1014.280029 56.220001 -2.5 -3.75
20/02/20 10:29:28 100 51.723598 5.877053 25 49 4 19.870001 1014.280029 56.200001 -2.5 -2.5
20/02/20 10:29:43 100 51.723621 5.877065 25 49 4 19.870001 1014.280029 56.209999 -2.5 -3.75
20/02/20 10:29:58 100 51.723614 5.877095 25 49 4 19.870001 1014.280029 56.209999 -2.5 -1.25
20/02/20 10:30:13 100 51.723618 5.877103 25 50 4 19.860001 1014.26001 56.23 -2.5 -1.25
20/02/20 10:30:28 100 51.723633 5.877063 26 49 4 19.860001 1014.23999 56.209999 -3.75 -3.75
20/02/20 10:30:42 100 51.723625 5.877012 26 50 4 19.860001 1014.23999 56.110001 -1.25 -2.5
20/02/20 10:30:57 100 51.723614 5.877002 26 51 4 19.860001 1014.23999 56.060001 -2.5 -2.5
20/02/20 10:31:12 100 51.723614 5.877015 26 51 4 19.860001 1014.219971 56.130001 -2.5 -2.5
20/02/20 10:31:27 100 51.723618 5.877058 27 51 4 19.860001 1014.23999 56.27 -2.5 -1.25
20/02/20 10:31:42 100 51.723614 5.877048 27 51 4 19.85 1014.23999 56.259998 -1.25 -3.75
20/02/20 10:31:57 100 51.723614 5.877013 27 52 5 19.85 1014.23999 56.099998 -2.5 -3.75
20/02/20 10:32:12 100 51.723625 5.877013 27 52 5 19.85 1014.23999 56.240002 -1.25 -2.5
20/02/20 10:32:26 100 51.723621 5.877028 27 53 5 19.85 1014.23999 56.459999 -2.5 -1.25
20/02/20 10:32:41 100 51.723614 5.877048 27 53 5 19.85 1014.23999 56.360001 -2.5 -2.5
20/02/20 10:32:56 100 51.723602 5.876988 27 53 5 19.85 1014.23999 56.259998 -2.5 -5
20/02/20 10:33:11 100 51.723598 5.876993 28 53 5 19.85 1014.23999 56.25 -3.75 -1.25
20/02/20 10:33:26 100 51.723606 5.87699 28 54 5 19.85 1014.200012 56.360001 -2.5 -1.25
20/02/20 10:33:41 100 51.723602 5.87703 28 55 5 19.85 1014.219971 56.389999 -2.5 -2.5
20/02/20 10:33:56 100 51.723602 5.877035 29 56 5 19.84 1014.219971 56.310001 -2.5 -2.5
20/02/20 10:34:11 100 51.723618 5.87706 30 57 6 19.84 1014.200012 56.349998 -3.75 -1.25
20/02/20 10:34:25 100 51.72361 5.877085 30 59 6 19.84 1014.200012 56.349998 -2.5 -2.5
20/02/20 10:34:40 100 51.723602 5.877043 31 59 6 19.84 1014.200012 56.369999 -3.75 -2.5
20/02/20 10:34:55 100 51.723602 5.876995 31 60 6 19.84 1014.179993 56.400002 -2.5 -3.75
20/02/20 10:35:10 100 51.723549 5.877045 31 60 6 19.84 1014.179993 56.450001 -2.5 -2.5
20/02/20 10:35:25 100 51.723522 5.877065 31 59 6 19.84 1014.200012 56.470001 -1.25 -1.25
20/02/20 10:35:40 100 51.723503 5.877117 31 59 6 19.84 1014.179993 56.490002 -1.25 -3.75
20/02/20 10:35:54 100 51.723518 5.87713 31 60 6 19.84 1014.179993 56.490002 -3.75 -2.5
20/02/20 10:36:09 100 51.723534 5.877198 31 60 6 19.84 1014.200012 56.540001 -3.75 -2.5
20/02/20 10:36:24 100 51.723541 5.877223 31 60 6 19.84 1014.200012 56.580002 -2.5 -2.5
20/02/20 10:36:39 100 51.723534 5.877218 31 60 7 19.84 1014.219971 56.529999 -1.25 -2.5
20/02/20 10:36:54 100 51.723557 5.877023 31 59 6 19.84 1014.219971 56.540001 -1.25 -2.5
20/02/20 10:37:08 100 51.723568 5.877007 30 59 6 19.84 1014.219971 56.599998 0 -2.5
20/02/20 10:37:23 100 51.723545 5.876982 30 57 6 19.84 1014.23999 56.560001 -2.5 -3.75
20/02/20 10:37:38 100 51.723515 5.876985 29 57 6 19.84 1014.219971 56.509998 -1.25 -3.75
20/02/20 10:37:53 100 51.723503 5.876968 29 56 5 19.84 1014.219971 56.509998 -1.25 -3.75
20/02/20 10:38:08 100 51.723526 5.876963 29 55 5 19.84 1014.219971 56.540001 -2.5 -1.25
20/02/20 10:38:23 100 51.72353 5.876977 28 55 5 19.84 1014.219971 56.509998 -2.5 -2.5
20/02/20 10:38:38 100 51.723511 5.877068 28 54 5 19.84 1014.219971 56.529999 -2.5 -2.5
20/02/20 10:38:52 100 51.723507 5.87711 28 53 5 19.84 1014.23999 56.509998 -1.25 -2.5
20/02/20 10:39:07 100 51.723503 5.877087 27 53 5 19.84 1014.23999 56.57 -3.75 -1.25
20/02/20 10:39:22 100 51.723476 5.87718 27 53 4 19.84 1014.23999 56.599998 -3.75 -1.25
20/02/20 10:39:37 100 51.723484 5.877093 27 52 5 19.84 1014.26001 56.709999 -2.5 -1.25
20/02/20 10:39:52 100 51.723469 5.877043 27 51 5 19.84 1014.23999 56.669998 -3.75 -2.5
20/02/20 10:40:07 100 51.723434 5.876992 26 52 4 19.84 1014.23999 56.689999 -2.5 -2.5
20/02/20 10:40:21 100 51.723427 5.877007 26 51 4 19.84 1014.23999 56.689999 -2.5 -3.75
20/02/20 10:40:36 100 51.723469 5.877015 26 50 4 19.84 1014.23999 56.599998 -3.75 -3.75
20/02/20 10:40:51 100 51.723476 5.876987 26 50 4 19.84 1014.23999 56.639999 -1.25 -3.75
20/02/20 10:41:06 100 51.723476 5.876943 26 49 4 19.84 1014.23999 56.610001 -2.5 -3.75
20/02/20 10:41:21 100 51.723484 5.876975 25 49 4 19.84 1014.219971 56.669998 -1.25 -2.5
20/02/20 10:41:36 100 51.723537 5.877042 25 49 4 19.84 1014.23999 56.689999 -2.5 -3.75
20/02/20 10:41:51 100 51.723541 5.877047 25 48 4 19.84 1014.219971 56.689999 -2.5 -2.5
20/02/20 10:42:05 100 51.723534 5.87703 25 48 4 19.84 1014.219971 56.75 -2.5 -3.75
20/02/20 10:42:20 100 51.72353 5.877013 25 48 4 19.84 1014.219971 56.84 -2.5 -2.5
20/02/20 10:42:35 100 51.723549 5.877015 25 48 4 19.84 1014.219971 56.700001 -2.5 -2.5
20/02/20 10:42:50 100 51.723537 5.877027 25 49 4 19.84 1014.219971 56.650002 -2.5 -3.75
20/02/20 10:43:05 100 51.723534 5.877035 25 49 4 19.84 1014.219971 56.68 -3.75 -2.5
20/02/20 10:43:20 100 51.723545 5.877062 26 49 4 19.84 1014.200012 56.73 -1.25 -3.75
20/02/20 10:43:34 100 51.723572 5.877057 26 49 4 19.84 1014.200012 56.779999 -1.25 -2.5
20/02/20 10:43:49 100 51.723572 5.877028 26 50 4 19.84 1014.200012 56.830002 -2.5 -2.5
20/02/20 10:44:04 100 51.723557 5.877052 26 50 4 19.84 1014.200012 56.759998 -2.5 -3.75
20/02/20 10:44:19 100 51.723503 5.877035 26 50 4 19.84 1014.200012 56.779999 -3.75 -1.25
20/02/20 10:44:34 100 51.723503 5.877038 27 51 4 19.84 1014.200012 56.799999 -2.5 -2.5
20/02/20 10:44:49 100 51.723492 5.877053 27 53 5 19.84 1014.200012 57.150002 -2.5 -1.25
20/02/20 10:45:03 100 51.723511 5.877053 28 54 5 19.84 1014.179993 57.139999 -2.5 0
20/02/20 10:45:18 100 51.723568 5.877058 30 57 6 19.84 1014.179993 57.169998 -2.5 -2.5
20/02/20 10:45:33 100 51.723583 5.87705 32 61 7 19.84 1014.159973 57.029999 0 -1.25
20/02/20 10:45:48 100 51.723606 5.877008 34 67 8 19.85 1014.159973 56.93 -2.5 -1.25
20/02/20 10:46:03 100 51.723587 5.87696 37 72 9 19.85 1014.150024 57.52 -2.5 -1.25
20/02/20 10:46:18 100 51.723564 5.876955 39 76 10 19.85 1014.159973 57.200001 -2.5 -2.5

Mc'bedded
Idastraat 5
5431 GJ Cuijk
Dit e-mailadres wordt beveiligd tegen spambots. JavaScript dient ingeschakeld te zijn om het te bekijken.

Telephone +31 6 20 40 61 02

Chamber of Commerce Arnhem 72696311

Bank account NL46 KNAB 0258 2265 60